Tracking 19792 objects as of 16-Jul-2019
HD Live streaming from Space Station
objects crossing your sky now

SL-8 R/B

Track SL-8 R/B now!
10-day predictions


NORAD ID: 9848
Int'l Code: 1977-013B
Perigee: 975.6 km
Apogee: 998.0 km
Inclination: 83.0 °
Period: 104.7 minutes
Semi major axis: 7357 km
RCS: 4.757 m2 (large)
Launch date: February 21, 1977
Source: Commonwealth of Independent States (former USSR) (CIS)
Launch site: PLESETSK MISSILE AND SPACE COMPLEX (PKMTR)

Note: This is a ROCKET BODY
aabbcc
Your satellite tracking list
Your tracking list is empty




NASA's NSSDC Master Catalog

Two Line Element Set (TLE):
1  9848U 77013B   19196.91412175 +.00000052 +00000-0 +38386-4 0  9992
2  9848 082.9513 144.2693 0015209 288.5069 129.9610 13.75556469127350
Source of the keplerian elements: AFSPC